Location: Burla
(50.9568°N, 10.4983°E)
Time: 10:59:23
(UTC+00:00)

ATLAS 2AS CENTAUR R/B - Pass Details

Date: 18 January 2026
Orbit: 1050 x 1161 km, 63.7° (Epoch: 16 February)

Event Time Altitude Azimuth Distance (km) Brightness Sun altitude
Exits shadow 05:04:09 29° 305° (NW) 1,844 3.4 -19.6°
Maximum altitude 05:07:44 63° 234° (SW) 1,167 2.7 -19.0°
Drops below altitude 10° 05:14:23 10° 155° (SSE) 2,866 5.4 -18.0°
Sets 05:17:02 0° 153° (SSE) 3,825 6.2 -17.6°
